Página principal
METAR-TAF:

METAR-TAF

Aeroportos :

Dallas Executive Airport

Dallas, Texas, Estados Unidos

latitude: 32-40-33N, longitude: 096-51-50W, altura: 201 m

Observação actual do tempo

O boletim foi feito há 19 minutos, às 16:53 UTC
Vento 10 kt de nor-noroeste
Temperatura 16°C
Humidade 55%
Pressão 1025 hPa
Visibilidade: 16.1 km
Nuvens fragmentadasa uma altura de 5000 ft

METAR: KRBD 201653Z 33010KT 10SM BKN050 16/07 A3026 RMK AO2 SLP245 T01610067

Hora: 12:12 (17:12 UTC)


TAF: em falta

Observações e previsões do tempo de mais de 4000 aeroportos (mensagens METAR e TAF).

As estações disponíveis são os pontos amarelos e vermelhos sobre o mapa.

Mova o rato sobre o mapa para ver o nome da estação.

Depois clique no ponto para visualizar as observações e previsões meteorológicas.

Para alterar o mapa : clique nos botões verdes com uma cruz preta para aumentar o zoom; no botão verde com uma pitada de zoom; ou nas setas verdes para mapas adjacentes.


METAR-TAF: